Location: Fort Frances
(48.6170°N, 93.4170°W)
Time: 19:23:17
(UTC-05:00)

Daily predictions for brighter satellites

Satellite Brightness Start Highest point End
(mag) Time Altitude Azimuth Time Altitude Azimuth Time Altitude Azimuth
Cosmos 1271 Rocket 4.4 21:56:39 10° NNE 21:59:36 21° ENE 22:02:34 10° ESE
Cosmos 1441 Rocket 3.6 21:55:58 10° SSW 21:59:44 65° WNW 22:03:29 10° N
Terra 3.2 21:56:49 10° ESE 22:00:39 25° ENE 22:04:31 10° N
Cosmos 2322 3.9 21:55:48 10° NNW 22:01:33 78° WSW 22:07:14 10° SSE
CZ-4 SHROUD 3.5 21:58:52 10° S 22:01:59 70° WSW 22:05:08 10° NNW
Cosmos 2237 Rocket 3.7 21:57:35 10° NNW 22:02:25 27° NE 22:07:13 10° ESE
Cosmos 2322 Rocket 3.9 22:00:42 10° NW 22:05:25 28° WSW 22:10:07 10° SSW
USA 234 4.4 22:02:21 10° ENE 22:08:33 47° NNW 22:14:44 10° W
USA 229 DEB 3.7 22:03:17 10° SSW 22:10:12 76° SE 22:17:14 10° NE
USA 229 3.7 22:03:23 10° SSW 22:10:18 76° SE 22:17:20 10° NE
SL-16 R/B 4.1 22:10:51 10° NW 22:15:26 26° WSW 22:20:00 10° SSW
Cosmos 1908 4.3 22:12:03 10° NNW 22:15:46 44° W 22:19:30 10° SSW
Cosmos 2360 Rocket 2.7 22:10:24 10° NW 22:15:58 60° WSW 22:21:30 10° S
SeaSat 1 4.3 22:17:35 10° E 22:21:13 21° NE 22:24:52 10° N
NOAA 11 4.2 22:17:08 10° SSE 22:22:34 77° ENE 22:28:03 10° NNW
NOSS 0 Rocket 4.5 22:21:28 10° NNW 22:27:27 50° NE 22:33:19 11° SE
USA 32 4.4 22:24:04 10° N 22:29:12 50° ENE 22:34:01 11° SSE
NOSS 3-1 (A) 4.2 22:24:53 10° S 22:30:02 32° ESE 22:35:40 10° NE
Meteor 1-4 Rocket 3.2 22:27:23 10° N 22:31:05 45° ENE 22:34:10 13° SE
Meteor 1-11 4.4 22:26:36 10° S 22:32:15 60° E 22:37:54 10° NNE
Aureole 3 4.4 22:26:57 10° S 22:33:38 88° W 22:38:55 10° N
Cosmos 2242 Rocket 3.8 22:30:45 10° N 22:35:09 57° ENE 22:39:06 13° SSE
Cosmos 1674 3.9 22:32:21 10° SSW 22:36:01 43° WNW 22:39:45 10° N
SPOT 5 4.3 22:36:38 10° SSW 22:40:45 33° W 22:45:07 10° NNW
Cosmos 1626 3.9 22:40:11 13° SE 22:42:10 18° E 22:44:50 10° NE
Cosmos 1300 2.9 22:38:28 10° NNW 22:42:20 71° W 22:46:04 10° S
SL-08 RB Rocket 3.8 22:40:45 10° S 22:45:10 75° WSW 22:49:41 10° NNW
Cosmos 2227 Rocket 3.5 22:42:28 13° SE 22:45:53 22° E 22:50:09 10° NE
DELTA 2 DEB (DPAF) 4.2 22:42:51 12° SSE 22:46:59 90° ENE 22:51:31 10° NNW
Cosmos 1437 4.0 22:44:17 10° SSW 22:47:26 42° WNW 22:50:36 10° N
Cosmos 2333 Rocket 2.6 22:44:39 10° NNW 22:50:21 58° ENE 22:55:11 14° SE
USA 245 4.0 22:48:15 10° SSW 22:50:31 26° W 22:52:34 10° NW
Cosmos 1862 Rocket 4.3 22:47:35 10° N 22:51:42 39° ENE 22:54:46 16° SE
ATLAS 2AS CENTAUR R/B 4.0 22:48:09 13° SSE 22:53:00 24° ESE 22:59:02 10° ENE
SL-16 R/B 3.6 22:49:25 10° NNW 22:54:24 30° NE 22:59:23 10° ESE
Cosmos 2298 Rocket 4.1 22:49:47 10° S 22:55:02 64° ESE 23:00:19 10° NNE
CARTOSAT-1 3.6 22:54:18 16° SSE 22:57:46 79° ENE 23:02:06 10° N
Sich 1 3.0 22:57:08 10° S 23:01:34 89° ESE 23:06:00 10° N
COSMOS 2428 3.2 22:56:27 10° NW 23:01:58 53° WSW 23:06:47 13° S
Cosmos 1633 Rocket 3.0 22:58:09 10° S 23:02:32 87° E 23:06:56 10° N
Cosmos 1937 Rocket 3.8 22:58:30 12° S 23:03:05 47° ESE 23:08:04 10° NNE
Cosmos 1869 4.0 23:01:16 10° N 23:05:09 42° ENE 23:07:41 19° SE
Cosmos 1455 2.6 23:01:29 10° N 23:05:12 50° ENE 23:07:33 20° SE
CZ-4C R/B 3.7 23:05:06 15° S 23:07:51 49° W 23:11:15 10° NNW
ATLAS 3B R/B 3.3 23:02:33 10° NW 23:09:36 53° NE 23:16:06 10° ESE
Cosmos 2297 Rocket 3.3 23:10:25 17° SE 23:13:13 26° ESE 23:17:47 10° NE
H-2A R/B 2.3 23:10:13 15° S 23:14:40 73° WSW 23:20:08 10° NNW
Lacrosse 4 Rocket 3.0 23:11:56 10° NNW 23:15:52 31° NE 23:19:35 11° ESE
GEOS 3 Rocket 4.4 23:11:06 10° ESE 23:16:03 48° NE 23:21:02 10° NNW
Cosmos 990 Rocket 4.4 23:13:38 17° S 23:17:15 44° ESE 23:22:09 10° NE
NOSS 3-1 (C) 3.4 23:11:29 10° SSW 23:17:25 77° SE 23:24:07 10° NE
Cosmos 2219 Rocket 2.3 23:12:47 10° NNW 23:18:23 74° WSW 23:22:26 19° SSE
ARGOS 4.5 23:19:06 10° SSW 23:23:58 34° W 23:28:52 10° NNW
BREEZE-M DEB (TANK) 2.3 23:24:40 10° W 23:26:39 44° SSW 23:27:42 29° SE
Cosmos 292 Rocket 4.4 23:24:20 10° NNW 23:28:55 49° WSW 23:32:10 18° S
ALOS 2 4.4 23:27:29 12° ESE 23:30:22 22° ENE 23:33:47 10° NNE
Nadezhda 1 Rocket 4.1 23:26:27 10° NNW 23:32:32 75° W 23:37:15 18° S
SAR-Lupe-2 4.3 23:31:37 20° SSW 23:33:47 47° W 23:37:16 10° NNW
Cosmos 1980 3.7 23:28:10 10° NNW 23:33:50 77° WSW 23:37:35 22° SSE
Cosmos 1726 4.1 23:31:11 10° NW 23:34:13 23° W 23:37:15 10° SW
Spot 4 4.1 23:31:37 19° S 23:35:01 64° WSW 23:39:52 10° NNW
Cosmos 1271 Rocket 4.0 23:32:17 10° NNW 23:35:46 34° W 23:38:28 15° SSW
Cosmos 1703 3.8 23:34:08 14° SSW 23:37:24 55° WNW 23:41:17 10° N
Terra 2.5 23:34:39 17° SSW 23:38:09 47° W 23:42:46 10° NNW
H-2A R/B 4.4 23:36:24 10° NE 23:39:03 16° E 23:40:12 15° ESE
Cosmos 1346 3.0 23:39:15 30° SSW 23:40:36 88° WNW 23:43:39 10° N
Cosmos 2219 4.2 23:35:31 10° SW 23:41:04 48° NW 23:46:39 10° NNE
COSMOS 2455 3.1 23:35:22 10° NNW 23:41:24 67° NE 23:45:48 19° SE
Spot 2 4.5 23:36:28 10° NNE 23:41:39 85° WNW 23:45:44 16° SSW
Cosmos 1898 Rocket 3.9 23:37:52 10° SW 23:42:59 63° WNW 23:48:12 10° NNE
CZ-4B R/B 3.5 23:44:09 14° E 23:45:48 19° ENE 23:48:21 10° NNE
Cosmos 1048 Rocket 4.4 23:41:30 10° NNW 23:46:49 58° ENE 23:50:14 22° SE
Cosmos 2237 Rocket 2.4 23:41:18 10° NNW 23:46:59 67° WSW 23:50:31 23° S
Cosmos 1745 Rocket 4.3 23:42:06 11° SSW 23:48:08 65° WNW 23:54:19 10° N
BREEZE-M TANK 3.9 23:32:26 10° WSW 23:48:22 55° S 23:52:18 10° E
Cosmos 1125 Rocket 4.2 23:46:29 24° SSE 23:48:59 38° ESE 23:53:53 10° NE
USA 234 4.4 23:44:43 10° E 23:50:52 45° N 23:57:02 10° WNW
DMSP B5D2-2 4.4 23:46:02 10° N 23:51:13 64° WNW 23:56:03 12° SSW
Cosmos 1470 Rocket 4.0 23:48:55 16° SSW 23:52:14 58° WNW 23:56:31 10° N
Cosmos 1703 Rocket 3.6 23:48:04 10° N 23:52:25 67° E 23:54:35 29° SSE
Cosmos 220 Rocket 4.3 23:48:52 13° SSW 23:52:48 69° WNW 23:57:15 10° NNE
Cosmos 2221 Rocket 3.8 23:48:39 10° N 23:53:12 65° ENE 23:55:32 28° SSE
Cosmos 2082 3.7 23:49:09 18° SSW 23:53:30 68° ESE 23:59:12 10° NNE
Okean 1-7 3.7 23:49:28 10° N 23:53:36 43° ENE 23:55:37 25° SE
Cosmos 1933 Rocket 4.0 23:50:13 16° SSW 23:53:40 59° WNW 23:58:06 10° N
